• In Belarus
  • List of Countries
  • For 7 days
  • Water Temperature
  • Satellite Maps
  • Weather Map
  • Weather Widgets
  • user-avatar
    Login

    Hourly Weather Portalegre

    Today, 11 December, Tuesday

    Time Temperature Precipitation Wind Pressure Humidity
    00:00 +10°C° 0 mm 1 mps 728 mmHg 60%
    01:00 +10°C° 0 mm 1 mps 727 mmHg 61%
    02:00 +10°C° 0 mm 1 mps 727 mmHg 61%
    03:00 +9°C° 0 mm 1 mps 727 mmHg 61%
    04:00 +9°C° 0 mm 1 mps 727 mmHg 62%
    05:00 +9°C° 0 mm 1 mps 727 mmHg 62%
    06:00 +9°C° 0 mm 1 mps 727 mmHg 63%
    07:00 +9°C° 0 mm 1 mps 727 mmHg 63%
    08:00 +10°C° 0 mm 1 mps 727 mmHg 63%
    09:00 +11°C° 0 mm 1 mps 727 mmHg 64%
    10:00 +12°C° 0 mm 1 mps 727 mmHg 64%
    11:00 +13°C° 0 mm 1 mps 728 mmHg 65%
    12:00 +15°C° 0 mm 1 mps 728 mmHg 65%
    13:00 +15°C° 0 mm 1 mps 728 mmHg 66%
    14:00 +15°C° 0 mm 1 mps 727 mmHg 67%
    15:00 +15°C° 0 mm 1 mps 727 mmHg 69%
    16:00 +14°C° 0 mm 1 mps 727 mmHg 74%
    17:00 +13°C° 0 mm 1 mps 727 mmHg 79%
    18:00 +12°C° 0 mm 1 mps 727 mmHg 84%
    19:00 +11°C° 0 mm 1 mps 727 mmHg 86%
    20:00 +11°C° 0 mm 1 mps 727 mmHg 88%
    21:00 +10°C° 0 mm 1 mps 728 mmHg 90%
    22:00 +9°C° 0 mm 1 mps 728 mmHg 91%
    23:00 +9°C° 0 mm 1 mps 728 mmHg 92%

    Tomorrow, 12 December, Wednesday

    Time Temperature Precipitation Wind Pressure Humidity
    00:00 +9°C° 0 mm 1 mps 728 mmHg 93%
    01:00 +8°C° 0 mm 1 mps 728 mmHg 94%
    02:00 +8°C° 0 mm 1 mps 727 mmHg 95%
    03:00 +8°C° 0 mm 1 mps 727 mmHg 95%
    04:00 +8°C° 0 mm 1 mps 727 mmHg 95%
    05:00 +8°C° 0 mm 1 mps 727 mmHg 96%
    06:00 +8°C° 0 mm 1 mps 727 mmHg 96%
    07:00 +8°C° 0 mm 1 mps 727 mmHg 95%
    08:00 +9°C° 0 mm 1 mps 727 mmHg 93%
    09:00 +9°C° 0 mm 1 mps 727 mmHg 92%
    10:00 +10°C° 0 mm 1 mps 727 mmHg 87%
    11:00 +10°C° 0 mm 2 mps 727 mmHg 82%
    12:00 +12°C° 0 mm 2 mps 727 mmHg 77%
    13:00 +13°C° 0 mm 2 mps 726 mmHg 76%
    14:00 +12°C° 0 mm 3 mps 726 mmHg 75%
    15:00 +12°C° 0 mm 3 mps 725 mmHg 74%
    16:00 +11°C° 0 mm 3 mps 725 mmHg 77%
    17:00 +12°C° 0 mm 2 mps 725 mmHg 81%
    18:00 +10°C° 0 mm 2 mps 725 mmHg 84%
    19:00 +10°C° 0.2 mm 2 mps 725 mmHg 86%
    20:00 +10°C° 0.2 mm 2 mps 725 mmHg 89%
    21:00 +9°C° 0.2 mm 3 mps 725 mmHg 91%
    22:00 +10°C° 0.5 mm 3 mps 724 mmHg 92%
    23:00 +10°C° 0.5 mm 4 mps 723 mmHg 93%

    Day after tomorrow, 13 December, Thursday

    Time Temperature Precipitation Wind Pressure Humidity
    00:00 +9°C° 0.5 mm 5 mps 722 mmHg 94%
    01:00 +10°C° 1 mm 6 mps 722 mmHg 92%
    02:00 +10°C° 1 mm 7 mps 721 mmHg 91%
    03:00 +11°C° 1 mm 8 mps 720 mmHg 89%
    04:00 +10°C° 0.4 mm 7 mps 720 mmHg 85%
    05:00 +8°C° 0.4 mm 6 mps 720 mmHg 81%
    06:00 +7°C° 0.4 mm 6 mps 720 mmHg 78%
    07:00 +6°C° 0 mm 5 mps 721 mmHg 78%
    08:00 +6°C° 0 mm 5 mps 722 mmHg 79%
    09:00 +6°C° 0 mm 5 mps 722 mmHg 80%
    10:00 +7°C° 0 mm 5 mps 723 mmHg 74%
    11:00 +8°C° 0 mm 6 mps 723 mmHg 69%
    12:00 +9°C° 0 mm 6 mps 724 mmHg 63%
    13:00 +9°C° 0 mm 7 mps 724 mmHg 61%
    14:00 +9°C° 0 mm 7 mps 724 mmHg 60%
    15:00 +9°C° 0 mm 7 mps 724 mmHg 58%
    16:00 +8°C° 0 mm 6 mps 724 mmHg 63%
    17:00 +7°C° 0 mm 4 mps 724 mmHg 68%
    18:00 +7°C° 0 mm 3 mps 724 mmHg 73%
    19:00 +5°C° 0 mm 3 mps 725 mmHg 77%
    20:00 +5°C° 0 mm 3 mps 725 mmHg 80%
    21:00 +5°C° 0 mm 2 mps 726 mmHg 84%
    22:00 +5°C° 0 mm 2 mps 726 mmHg 86%
    23:00 +5°C° 0 mm 2 mps 726 mmHg 88%

    14 December, Friday

    Time Temperature Precipitation Wind Pressure Humidity
    00:00 +4°C° 0 mm 2 mps 726 mmHg 90%
    01:00 +4°C° 0 mm 2 mps 726 mmHg 91%
    02:00 +4°C° 0 mm 2 mps 727 mmHg 92%
    03:00 +4°C° 0 mm 2 mps 727 mmHg 93%
    04:00 +5°C° 0 mm 2 mps 727 mmHg 91%
    05:00 +5°C° 0 mm 2 mps 727 mmHg 89%
    06:00 +5°C° 0 mm 2 mps 727 mmHg 87%
    07:00 +6°C° 0 mm 2 mps 728 mmHg 86%
    08:00 +6°C° 0 mm 2 mps 728 mmHg 84%
    09:00 +6°C° 0 mm 2 mps 729 mmHg 83%
    10:00 +8°C° 0 mm 2 mps 729 mmHg 76%
    11:00 +10°C° 0 mm 2 mps 730 mmHg 68%
    12:00 +12°C° 0 mm 2 mps 730 mmHg 61%
    13:00 +13°C° 0 mm 2 mps 730 mmHg 61%
    14:00 +12°C° 0 mm 3 mps 730 mmHg 61%
    15:00 +12°C° 0 mm 3 mps 730 mmHg 61%
    16:00 +12°C° 0 mm 2 mps 730 mmHg 69%
    17:00 +9°C° 0 mm 2 mps 730 mmHg 77%
    18:00 +9°C° 0 mm 1 mps 730 mmHg 84%
    19:00 +8°C° 0 mm 1 mps 730 mmHg 86%
    20:00 +8°C° 0 mm 1 mps 730 mmHg 89%
    21:00 +7°C° 0 mm 1 mps 731 mmHg 91%
    22:00 +7°C° 0 mm 1 mps 731 mmHg 91%
    23:00 +6°C° 0 mm 0 mps 731 mmHg 91%

    15 December, Saturday

    Time Temperature Precipitation Wind Pressure Humidity
    00:00 +6°C° 0 mm 0 mps 731 mmHg 92%
    01:00 +6°C° 0 mm 0 mps 731 mmHg 92%
    02:00 +6°C° 0 mm 0 mps 730 mmHg 93%
    03:00 +6°C° 0 mm 0 mps 730 mmHg 93%
    04:00 +5°C° 0 mm 0 mps 730 mmHg 93%
    05:00 +5°C° 0 mm 0 mps 730 mmHg 93%
    06:00 +5°C° 0 mm 0 mps 730 mmHg 93%
    07:00 +6°C° 0 mm 0 mps 731 mmHg 92%
    08:00 +8°C° 0 mm 1 mps 731 mmHg 90%
    09:00 +8°C° 0 mm 1 mps 732 mmHg 88%
    10:00 +10°C° 0 mm 1 mps 732 mmHg 82%
    11:00 +12°C° 0 mm 1 mps 732 mmHg 76%
    12:00 +14°C° 0 mm 1 mps 732 mmHg 70%
    13:00 +14°C° 0 mm 1 mps 731 mmHg 68%
    14:00 +15°C° 0 mm 1 mps 731 mmHg 67%
    15:00 +15°C° 0 mm 1 mps 730 mmHg 66%
    16:00 +14°C° 0 mm 1 mps 730 mmHg 72%
    17:00 +12°C° 0 mm 1 mps 730 mmHg 79%
    18:00 +11°C° 0 mm 1 mps 730 mmHg 85%
    19:00 +10°C° 0 mm 1 mps 730 mmHg 86%
    20:00 +10°C° 0 mm 1 mps 731 mmHg 87%
    21:00 +9°C° 0 mm 1 mps 731 mmHg 88%
    22:00 +9°C° 0 mm 1 mps 730 mmHg 89%
    23:00 +9°C° 0 mm 1 mps 730 mmHg 89%

    16 December, Sunday

    Time Temperature Precipitation Wind Pressure Humidity
    00:00 +9°C° 0 mm 1 mps 730 mmHg 90%
    01:00 +8°C° 0 mm 1 mps 730 mmHg 90%
    02:00 +8°C° 0 mm 1 mps 730 mmHg 90%
    03:00 +8°C° 0 mm 1 mps 729 mmHg 91%
    04:00 +8°C° 0 mm 1 mps 729 mmHg 91%
    05:00 +8°C° 0 mm 1 mps 729 mmHg 91%
    06:00 +8°C° 0 mm 1 mps 729 mmHg 91%
    07:00 +8°C° 0 mm 1 mps 729 mmHg 90%
    08:00 +9°C° 0 mm 1 mps 729 mmHg 88%
    09:00 +9°C° 0 mm 1 mps 730 mmHg 86%
    10:00 +11°C° 0 mm 1 mps 730 mmHg 82%
    11:00 +12°C° 0 mm 2 mps 730 mmHg 78%
    12:00 +14°C° 0 mm 2 mps 730 mmHg 74%
    13:00 +14°C° 0 mm 2 mps 730 mmHg 74%
    14:00 +15°C° 0 mm 2 mps 729 mmHg 74%
    15:00 +15°C° 0 mm 2 mps 729 mmHg 75%
    16:00 +14°C° 0 mm 2 mps 729 mmHg 80%
    17:00 +13°C° 0 mm 2 mps 729 mmHg 85%
    18:00 +12°C° 0 mm 2 mps 729 mmHg 90%
    19:00 +12°C° 0 mm 2 mps 729 mmHg 91%
    20:00 +10°C° 0 mm 2 mps 729 mmHg 92%
    21:00 +10°C° 0 mm 2 mps 729 mmHg 93%
    22:00 +10°C° 0 mm 2 mps 729 mmHg 94%
    23:00 +10°C° 0 mm 2 mps 729 mmHg 95%
    Show more